Tracking 18647 objects as of 29-May-2017
HD Live streaming from Space Station
objects crossing your sky now

RUBIN 2

Track RUBIN 2 now!
10-day predictions
RUBIN 2 is classified as:


NORAD ID: 27605
Int'l Code: 2002-058A
Perigee: 630.8 km
Apogee: 674.4 km
Inclination: 64.6 °
Period: 97.6 minutes
Semi major axis: 7023 km
RCS: 0.234 m2 (medium)
Launch date: December 20, 2002
Source: Germany (GER)
Launch site: TYURATAM MISSILE AND SPACE COMPLEX (TTMTR)
Uplink (MHz): 435.275
Downlink (MHz): 145.825
Beacon (MHz): 145.825
Mode: U/1200 D/9600 MSK
Call sign:
Status: Inactive

Your satellite tracking list
Your tracking list is empty





NASA's NSSDC Master Catalog

Two Line Element Set (TLE):
1 27605U 02058A   17148.56105623 -.00000035 +00000-0 +15460-4 0  9993
2 27605 064.5543 167.7597 0031061 107.0992 253.3516 14.74905356776526
Source of the keplerian elements: AFSPC